Flag for French Polynesia Weather past 2 weeks in Gambier Islands, French Polynesia

Now
67 °F

Mild.


Feels Like: 67 °F
Forecast: 69 / 72 °F
Wind: 12 mph from South

Location: Rikitea

Current Time: Jul 30, 2014 at 11:06:15 PM

Latest Report: Jul 30, 2014 at 10:00 PM


Visibility: N/A

Pressure: 30.13 "Hg

Humidity: 69%

Dew point: 57 °F

Location of Gambier IslandsLocation

Historic Weather in Gambier Islands — Graph

°F

Gambier Islands temperature yesterday

Maximum temperature yesterday: 73 °F (at 11:00 AM)
Minimum temperature yesterday: 68 °F (at 10:00 PM)
Average temperature yesterday: 70 °F

Past Weeks' High & Low Weather Summary

 TemperatureHumidityPressure
High78 °F (Jul 28, 12:00 PM)96% (Jul 18, 7:00 PM)30.14 "Hg (Jul 18, 7:00 PM)
Low65 °F (Jul 21, 5:00 AM)59% (Jul 16, 11:00 AM)29.89 "Hg (Jul 20, 4:00 AM)
Average71 °F80%30.04 "Hg
* Reported Jul 15 10:00 PM — Jul 30 9:00 PM, Gambier Islands, Weather by CustomWeather, © 2014

Note: Actual official high and low records may vary slightly from our data, if they occured in-between our weather recording intervals... More about our weather records

Advertising

Gambier Islands weather history for previous 24 hours

 ConditionsComfort  
Time TempWeatherWind HumidityBarometerVisibility
9:00 PM
Jul 30
68 °FMild.10 mph69%30.14 "HgN/A
7:00 PM68 °FMild.12 mph75%30.12 "HgN/A
6:00 PM67 °FMild.10 mph82%30.11 "HgN/A
5:00 PM68 °FOvercast.10 mph74%30.09 "Hg19 mi
4:00 PM68 °FScattered clouds.12 mph73%30.08 "Hg25 mi
3:00 PM70 °FOvercast.9 mph68%30.08 "Hg25 mi
2:00 PM71 °FOvercast.8 mph69%30.07 "Hg25 mi
1:00 PM69 °FOvercast.8 mph78%30.09 "Hg25 mi
12:00 PM70 °FOvercast.10 mph77%30.11 "Hg25 mi
11:00 AM71 °FPassing clouds.8 mph68%30.12 "Hg25 mi
10:00 AM71 °FPassing clouds.7 mph69%30.12 "Hg25 mi
9:00 AM70 °FOvercast.6 mph73%30.12 "Hg19 mi
8:00 AM68 °FOvercast.7 mph80%30.09 "Hg19 mi
7:00 AM67 °FOvercast.5 mph77%30.07 "Hg19 mi
6:00 AM66 °FPassing clouds.5 mph77%30.05 "Hg19 mi
5:00 AM67 °FMild.6 mph77%30.04 "HgN/A
4:00 AM68 °FMild.6 mph78%30.03 "HgN/A
3:00 AM68 °FMild.7 mph82%30.04 "HgN/A
2:00 AM69 °FMild.6 mph80%30.04 "HgN/A
1:00 AM68 °FMild.7 mph79%30.05 "HgN/A
12:00 AM67 °FMild.6 mph80%30.05 "HgN/A
11:00 PM
Jul 29
68 °FMild.6 mph79%30.05 "HgN/A
Weather by CustomWeather, © 2014

See weather overviewHow to use our weather pages